FW9036 Weather Reports


time (UTC)temp
C
wind
direction
speed
KPH
gust
KPH
rain 1hr
cm
rain 24hr
cm
rain mn
cm
humidity
%
barometer
mb
20260904095532 25 13 0.0 0.0 0.00 0.00 0.00 97 1013.3
20260904095027 25 250 0.0 0.0 0.00 0.00 0.00 97 1013.3
20260904094522 25 103 0.0 0.0 0.00 0.00 0.00 97 1013.2
20260904094017 25 278 0.0 0.0 0.00 0.00 0.00 97 1013.3
20260904093514 25 18 0.0 0.0 0.00 0.00 0.00 97 1013.2
20260904093009 25 110 0.0 1.6 0.00 0.00 0.00 97 1013.1
20260904092504 25 58 0.0 0.0 0.00 0.00 0.00 97 1013.3
20260904092000 25 123 0.0 0.0 0.00 0.00 0.00 97 1013.0
20260904091451 25 290 0.0 0.0 0.00 0.00 0.00 97 1013.1
20260904090950 25 211 0.0 0.0 0.00 0.00 0.00 96 1013.0
20260904090446 25 107 0.0 0.0 0.00 0.00 0.00 96 1013.1
20260904085941 25 18 0.0 1.6 0.00 0.00 0.00 96 1012.9
20260904085437 25 134 0.0 0.0 0.00 0.00 0.00 96 1013.2
20260904084936 25 134 0.0 0.0 0.00 0.00 0.00 96 1013.2
20260904084432 25 134 0.0 0.0 0.00 0.00 0.00 96 1013.0
20260904083928 25 134 0.0 0.0 0.00 0.00 0.00 96 1013.2
20260904083424 25 134 0.0 0.0 0.00 0.00 0.00 96 1012.8
20260904082920 25 134 0.0 0.0 0.00 0.00 0.00 95 1013.0
20260904082420 25 134 0.0 0.0 0.00 0.00 0.00 95 1012.9
20260904081914 25 186 0.0 0.0 0.00 0.00 0.00 95 1013.0
20260904081410 25 186 0.0 0.0 0.00 0.00 0.00 95 1013.0
20260904080906 25 186 0.0 0.0 0.00 0.00 0.00 95 1012.9
20260904080401 25 186 0.0 0.0 0.00 0.00 0.00 95 1013.1
20260904075857 25 186 0.0 0.0 0.00 0.00 0.00 95 1013.2
20260904075353 25 98 0.0 0.0 0.00 0.00 0.00 94 1013.0
20260904074851 25 98 0.0 0.0 0.00 0.00 0.00 95 1012.9
20260904074346 25 144 0.0 0.0 0.00 0.00 0.00 96 1013.1
20260904073842 25 290 0.0 0.0 0.00 0.00 0.00 96 1013.0
20260904073338 25 205 0.0 0.0 0.00 0.00 0.00 97 1012.9
20260904072833 25 98 0.0 0.0 0.00 0.00 0.00 97 1013.0
20260904072333 25 98 0.0 0.0 0.00 0.00 0.00 97 1013.3
20260904071828 25 85 0.0 0.0 0.00 0.00 0.00 97 1013.0
20260904071324 25 85 0.0 0.0 0.00 0.00 0.00 97 1013.1
20260904070818 25 70 0.0 0.0 0.00 0.00 0.00 97 1013.0
20260904070317 25 70 0.0 0.0 0.00 0.00 0.00 97 1012.9
20260904065812 25 70 0.0 0.0 0.00 0.00 0.00 97 1012.9
20260904065308 25 70 0.0 0.0 0.00 0.00 0.00 97 1013.2
20260904064803 25 70 0.0 0.0 0.00 0.00 0.00 96 1013.0
20260904064259 25 70 0.0 0.0 0.00 0.00 0.00 96 1013.2
20260904063754 25 70 0.0 0.0 0.00 0.00 0.00 96 1013.0
20260904063250 25 70 0.0 0.0 0.00 0.00 0.00 96 1013.2
20260904062746 25 70 0.0 0.0 0.00 0.00 0.00 96 1013.2
20260904062242 25 70 0.0 0.0 0.00 0.00 0.00 96 1013.2
20260904061737 25 70 0.0 0.0 0.00 0.00 0.00 96 1013.3
20260904061233 25 70 0.0 0.0 0.00 0.00 0.00 96 1013.5
20260904060730 25 250 0.0 0.0 0.00 0.00 0.00 95 1013.4
20260904060225 25 250 0.0 0.0 0.00 0.00 0.00 95 1013.5
20260904055720 25 250 0.0 0.0 0.00 0.00 0.00 95 1013.8
20260904055215 25 250 0.0 0.0 0.00 0.00 0.00 95 1013.6
20260904054711 25 250 0.0 0.0 0.00 0.00 0.00 95 1013.9
20260904054207 25 250 0.0 0.0 0.00 0.00 0.00 95 1013.7
20260904053701 25 250 0.0 0.0 0.00 0.00 0.00 94 1013.7
20260904053156 25 98 0.0 0.0 0.00 0.00 0.00 95 1013.8
20260904052653 25 98 0.0 0.0 0.00 0.00 0.00 95 1014.0
20260904052148 25 110 0.0 0.0 0.00 0.00 0.00 95 1014.1
20260904051645 25 57 0.0 0.0 0.00 0.00 0.00 95 1014.0
20260904051145 25 57 0.0 0.0 0.00 0.00 0.00 95 1014.1
20260904050640 25 57 0.0 0.0 0.00 0.00 0.00 95 1014.1
20260904050137 25 186 0.0 0.0 0.00 0.00 0.00 95 1014.1
20260904045636 25 186 0.0 0.0 0.00 0.00 0.00 95 1014.2
20260904045131 25 186 0.0 0.0 0.00 0.00 0.00 95 1014.2
20260904044626 25 186 0.0 0.0 0.00 0.00 0.00 94 1014.1
20260904044123 25 186 0.0 0.0 0.00 0.00 0.00 94 1014.2
20260904043619 25 186 0.0 0.0 0.00 0.00 0.00 94 1014.1
20260904043115 26 150 0.0 0.0 0.00 0.00 0.00 94 1014.2
20260904042610 26 123 0.0 0.0 0.00 0.00 0.00 93 1014.1
20260904042106 26 227 0.0 1.6 0.00 0.00 0.00 93 1014.1
20260904041601 26 285 0.0 0.0 0.00 0.00 0.00 92 1014.1
20260904041057 26 285 0.0 0.0 0.00 0.00 0.00 92 1014.0
20260904040557 26 210 0.0 0.0 0.00 0.00 0.00 92 1014.0
20260904040054 26 92 0.0 0.0 0.00 0.00 0.00 92 1014.2
20260904035549 26 296 0.0 0.0 0.00 0.00 0.00 91 1014.0
20260904035048 26 94 0.0 1.6 0.00 0.00 0.00 91 1014.2
20260904034543 26 105 0.0 0.0 0.00 0.00 0.00 91 1014.2
20260904034039 26 268 0.0 0.0 0.00 0.00 0.00 91 1014.2
20260904033535 26 110 0.0 0.0 0.00 0.00 0.00 91 1014.1
20260904033032 26 250 0.0 0.0 0.00 0.00 0.00 91 1014.0
20260904032528 26 250 0.0 1.6 0.00 0.00 0.00 91 1014.1
20260904032026 26 198 0.0 0.0 0.00 0.00 0.00 91 1013.9
20260904031521 26 43 0.0 1.6 0.00 0.00 0.00 91 1014.0
20260904031017 26 98 0.0 1.6 0.00 0.00 0.00 91 1014.1
20260904030513 26 303 0.0 0.0 0.00 0.00 0.00 91 1014.0
20260904030008 26 290 0.0 1.6 0.00 0.00 0.00 91 1013.9
20260904025504 26 315 0.0 0.0 0.00 0.00 0.00 90 1014.0
20260904025004 26 274 0.0 0.0 0.00 0.00 0.00 90 1014.1
20260904024459 26 153 0.0 0.0 0.00 0.00 0.00 90 1013.9
20260904023954 26 210 0.0 1.6 0.00 0.00 0.00 90 1013.6
20260904023450 26 163 0.0 0.0 0.00 0.00 0.00 90 1013.8
20260904022950 26 278 0.0 0.0 0.00 0.00 0.00 90 1013.9
20260904022446 26 278 0.0 0.0 0.00 0.00 0.00 90 1013.8
20260904021943 26 34 0.0 1.6 0.00 0.00 0.00 90 1013.7
20260904021438 26 31 0.0 3.2 0.00 0.00 0.00 90 1013.8
20260904020933 26 98 0.0 0.0 0.00 0.00 0.00 90 1013.9
20260904020428 26 216 0.0 1.6 0.00 0.00 0.00 91 1013.7
20260904015926 26 223 0.0 0.0 0.00 0.00 0.00 90 1013.9
20260904015422 26 95 0.0 1.6 0.00 0.00 0.00 90 1013.5
20260904014920 26 20 0.0 1.6 0.00 0.00 0.00 90 1013.7
20260904014416 26 198 0.0 1.6 0.00 0.00 0.00 90 1013.7
20260904013912 26 43 0.0 0.0 0.00 0.00 0.00 89 1013.5
20260904013407 26 250 0.0 0.0 0.00 0.00 0.00 89 1013.9
20260904012858 26 236 0.0 1.6 0.00 0.00 0.00 88 1013.7
20260904012357 26 186 0.0 0.0 0.00 0.00 0.00 88 1013.9
20260904011857 26 98 0.0 1.6 0.00 0.00 0.00 88 1013.9
20260904011352 26 98 0.0 0.0 0.00 0.00 0.00 88 1013.5
20260904010847 26 25 0.0 1.6 0.00 0.00 0.00 88 1013.8
20260904010344 26 227 0.0 0.0 0.00 0.00 0.00 87 1013.5
20260904005838 26 205 0.0 0.0 0.00 0.00 0.00 86 1013.5
20260904005334 26 198 0.0 1.6 0.00 0.00 0.00 86 1013.5
20260904004829 27 91 0.0 3.2 0.00 0.00 0.00 85 1013.5
20260904004326 27 21 0.0 1.6 0.00 0.00 0.00 86 1013.2
20260904003820 27 130 0.0 0.0 0.00 0.00 0.00 85 1013.5
20260904003316 27 84 0.0 0.0 0.00 0.00 0.00 85 1013.5
20260904002812 27 278 0.0 0.0 0.00 0.00 0.00 84 1013.6
20260904002308 27 84 0.0 0.0 0.00 0.00 0.00 84 1013.6
20260904001807 27 70 0.0 0.0 0.00 0.00 0.00 84 1013.5
20260904001302 27 216 0.0 0.0 0.00 0.00 0.00 84 1013.6
20260904000757 27 250 0.0 0.0 0.00 0.00 0.00 84 1013.4
20260904000251 27 97 0.0 1.6 0.00 0.00 0.00 83 1013.2
20260903235750 27 25 0.0 1.6 0.00 0.00 0.00 84 1013.3
20260903235247 27 31 0.0 1.6 0.00 0.00 0.00 84 1013.3
20260903234746 27 200 0.0 0.0 0.00 0.00 0.00 84 1013.1
20260903234243 27 54 0.0 1.6 0.00 0.00 0.00 83 1013.1
20260903233739 28 123 0.0 3.2 0.00 0.00 0.00 82 1013.1
20260903233234 28 214 0.0 1.6 0.00 0.00 0.00 81 1013.2
20260903232733 28 352 0.0 3.2 0.00 0.00 0.00 81 1013.0
20260903232230 28 347 1.6 1.6 0.00 0.00 0.00 80 1012.9
20260903231728 28 98 1.6 1.6 0.00 0.00 0.00 80 1012.9
20260903231224 28 199 0.0 1.6 0.00 0.00 0.00 79 1012.8
20260903230719 28 96 0.0 1.6 0.00 0.00 0.00 79 1012.7
20260903230214 28 176 0.0 0.0 0.00 0.00 0.00 78 1012.8
20260903225710 28 134 0.0 3.2 0.00 0.00 0.00 78 1012.6
20260903225207 28 96 0.0 1.6 0.00 0.00 0.00 79 1012.7
20260903224703 29 114 0.0 3.2 0.00 0.00 0.00 78 1012.8
20260903224158 29 296 0.0 0.0 0.00 0.00 0.00 76 1012.4
20260903223659 29 317 1.6 1.6 0.00 0.00 0.00 75 1012.5
20260903223157 29 95 3.2 3.2 0.00 0.00 0.00 75 1012.4
20260903222658 29 250 0.0 1.6 0.00 0.00 0.00 74 1012.1
20260903222156 29 189 0.0 3.2 0.00 0.00 0.00 75 1012.2
20260903221652 29 188 0.0 4.8 0.00 0.00 0.00 73 1012.3
20260903221150 29 116 0.0 1.6 0.00 0.00 0.00 73 1012.4
20260903220649 30 58 0.0 1.6 0.00 0.00 0.00 72 1012.2
20260903220144 29 266 1.6 1.6 0.00 0.00 0.00 78 1012.2
20260903215643 29 193 0.0 1.6 0.00 0.00 0.00 76 1012.2
20260903215138 29 84 0.0 3.2 0.00 0.00 0.00 76 1012.1
20260903214636 30 94 0.0 3.2 0.00 0.00 0.00 76 1012.1
20260903214132 29 163 1.6 1.6 0.00 0.00 0.00 76 1012.4
20260903213627 29 192 0.0 3.2 0.00 0.00 0.00 74 1012.4
20260903213123 30 86 0.0 4.8 0.00 0.00 0.00 74 1012.2
20260903212618 30 34 1.6 1.6 0.00 0.00 0.00 74 1012.4
20260903212114 30 189 1.6 3.2 0.00 0.00 0.00 74 1012.1
20260903211608 30 245 1.6 1.6 0.00 0.00 0.00 74 1012.2
20260903211106 29 47 0.0 4.8 0.00 0.00 0.00 74 1012.4
20260903210600 30 278 0.0 1.6 0.00 0.00 0.00 75 1012.2
20260903210056 30 273 0.0 3.2 0.00 0.00 0.00 77 1011.9
20260903205555 30 135 1.6 4.8 0.00 0.00 0.00 76 1012.1
20260903205049 30 100 0.0 6.4 0.00 0.00 0.00 76 1012.4
20260903204546 30 37 1.6 4.8 0.00 0.00 0.00 76 1012.5
20260903204041 30 103 0.0 4.8 0.00 0.00 0.00 75 1012.4
20260903203536 30 341 1.6 4.8 0.00 0.00 0.00 74 1012.4
20260903203036 30 34 0.0 4.8 0.00 0.00 0.00 75 1012.8
20260903202532 30 152 6.4 6.4 0.00 0.00 0.00 75 1012.6
20260903202027 30 344 0.0 6.4 0.00 0.00 0.00 74 1012.8
20260903201522 30 15 3.2 3.2 0.00 0.00 0.00 73 1013.0
20260903201020 30 79 1.6 3.2 0.00 0.00 0.00 74 1013.0
20260903200515 30 23 0.0 4.8 0.00 0.00 0.00 74 1013.1
20260903200011 31 20 3.2 4.8 0.00 0.00 0.00 72 1013.2
20260903195507 31 183 0.0 4.8 0.00 0.00 0.00 72 1013.4
20260903195002 31 128 1.6 4.8 0.00 0.00 0.00 72 1013.3
20260903194457 31 73 3.2 8.0 0.00 0.00 0.00 72 1013.3
20260903193953 31 319 0.0 3.2 0.00 0.00 0.00 71 1013.5
20260903193449 31 18 0.0 4.8 0.00 0.00 0.00 71 1013.4
20260903192943 31 0 4.8 4.8 0.00 0.00 0.00 70 1013.3
20260903192441 31 11 1.6 4.8 0.00 0.00 0.00 73 1013.3
20260903191935 30 74 1.6 4.8 0.00 0.00 0.00 73 1013.4
20260903191432 31 7 3.2 3.2 0.00 0.00 0.00 71 1013.2
20260903190931 31 26 1.6 3.2 0.00 0.00 0.00 70 1013.4
20260903190425 31 132 0.0 4.8 0.00 0.00 0.00 71 1013.4
20260903185919 31 73 1.6 4.8 0.00 0.00 0.00 70 1013.4
20260903185414 31 94 0.0 4.8 0.00 0.00 0.00 74 1013.5
20260903184910 31 20 9.7 9.7 0.00 0.00 0.00 73 1013.5
20260903184407 31 20 4.8 6.4 0.00 0.00 0.00 74 1013.5
20260903183906 30 79 0.0 8.0 0.00 0.00 0.00 74 1013.4
20260903183401 30 238 4.8 4.8 0.00 0.00 0.00 75 1013.5
20260903182901 30 148 3.2 3.2 0.00 0.00 0.00 77 1013.9
20260903182359 30 55 0.0 6.4 0.00 0.00 0.00 77 1013.8
20260903181854 30 278 0.0 3.2 0.00 0.00 0.00 79 1014.0
20260903181349 30 348 4.8 6.4 0.00 0.00 0.00 78 1014.0
20260903180843 29 216 0.0 3.2 0.00 0.00 0.00 81 1014.1
20260903180343 28 13 0.0 1.6 0.00 0.00 0.00 81 1014.2
20260903175843 28 79 0.0 3.2 0.00 0.00 0.00 82 1014.2
20260903175337 28 207 0.0 1.6 0.00 0.00 0.00 82 1014.4
20260903174832 28 19 0.0 3.2 0.00 0.00 0.00 81 1014.2
20260903174327 28 159 0.0 3.2 0.00 0.00 0.00 82 1014.3
20260903173826 28 113 1.6 1.6 0.00 0.00 0.00 82 1014.4
20260903173322 28 176 0.0 4.8 0.00 0.00 0.00 83 1014.4
20260903172818 28 206 1.6 3.2 0.00 0.00 0.00 83 1014.4
20260903172312 28 1 3.2 3.2 0.00 0.00 0.00 83 1014.8
20260903171808 28 248 0.0 1.6 0.00 0.00 0.00 83 1014.8
20260903171303 27 29 0.0 4.8 0.00 0.00 0.00 84 1014.9
20260903170802 27 43 0.0 3.2 0.00 0.00 0.00 83 1014.8
20260903170257 27 236 0.0 3.2 0.00 0.00 0.00 85 1014.8
20260903165755 27 16 0.0 4.8 0.00 0.00 0.00 83 1015.0
20260903165251 27 215 1.6 3.2 0.00 0.00 0.00 83 1015.0
20260903164745 27 250 0.0 1.6 0.00 0.00 0.00 82 1015.0
20260903164241 28 211 0.0 1.6 0.00 0.00 0.00 81 1015.4
20260903163740 28 198 3.2 4.8 0.00 0.00 0.00 79 1015.3
20260903163237 28 190 0.0 6.4 0.00 0.00 0.00 79 1015.0
20260903162732 28 8 3.2 4.8 0.00 0.00 0.00 78 1015.2
20260903162229 28 21 0.0 4.8 0.00 0.00 0.00 79 1015.0
20260903161724 29 152 3.2 6.4 0.00 0.00 0.00 79 1015.2
20260903161219 29 153 0.0 4.8 0.00 0.00 0.00 80 1015.1
20260903160715 28 220 0.0 6.4 0.00 0.00 0.00 80 1014.8
20260903160214 28 203 1.6 3.2 0.00 0.00 0.00 81 1014.9
20260903155713 28 227 0.0 4.8 0.00 0.00 0.00 81 1014.9
20260903155208 28 25 0.0 3.2 0.00 0.00 0.00 80 1015.2
20260903154704 29 210 0.0 3.2 0.00 0.00 0.00 80 1015.3
20260903154200 28 163 0.0 4.8 0.00 0.00 0.00 80 1015.1
20260903153655 28 48 1.6 4.8 0.00 0.00 0.00 81 1015.3
20260903153151 28 64 3.2 4.8 0.00 0.00 0.00 80 1015.3
20260903152647 29 130 0.0 4.8 0.00 0.00 0.00 79 1015.2
20260903152143 29 90 0.0 6.4 0.00 0.00 0.00 78 1015.0
20260903151643 29 12 3.2 6.4 0.00 0.00 0.00 79 1014.9
20260903151142 30 161 3.2 6.4 0.00 0.00 0.00 76 1014.8
20260903150637 30 122 0.0 4.8 0.00 0.00 0.00 77 1014.8
20260903150132 30 343 1.6 3.2 0.00 0.00 0.00 78 1014.7
20260903145632 29 133 1.6 4.8 0.00 0.00 0.00 79 1014.9
20260903145127 29 72 0.0 3.2 0.00 0.00 0.00 79 1014.9
20260903144626 29 108 0.0 3.2 0.00 0.00 0.00 79 1015.0
20260903144122 29 355 3.2 6.4 0.00 0.00 0.00 78 1014.8
20260903143618 29 297 1.6 3.2 0.00 0.00 0.00 81 1014.9
20260903143114 28 188 0.0 4.8 0.00 0.00 0.00 81 1014.6
20260903142609 28 99 3.2 4.8 0.00 0.00 0.00 83 1014.5
20260903142106 28 331 0.0 4.8 0.00 0.00 0.00 82 1014.6
20260903141601 28 223 0.0 3.2 0.00 0.00 0.00 82 1014.5
20260903141056 28 341 0.0 4.8 0.00 0.00 0.00 82 1014.5
20260903140552 28 126 0.0 3.2 0.00 0.00 0.00 83 1014.8
20260903140047 28 201 1.6 3.2 0.00 0.00 0.00 85 1014.6
20260903135542 28 101 0.0 3.2 0.00 0.00 0.00 84 1014.7
20260903135037 28 161 1.6 1.6 0.00 0.00 0.00 87 1015.0
20260903134536 28 197 0.0 3.2 0.00 0.00 0.00 87 1014.9
20260903134033 28 70 0.0 3.2 0.00 0.00 0.00 87 1014.8
20260903133530 28 28 1.6 4.8 0.00 0.00 0.00 88 1014.7
20260903133025 27 73 1.6 4.8 0.00 0.00 0.00 88 1014.6
20260903132520 28 96 1.6 6.4 0.00 0.00 0.00 89 1014.8
20260903132015 27 61 0.0 3.2 0.00 0.00 0.00 89 1014.7
20260903131510 27 131 0.0 3.2 0.00 0.00 0.00 90 1014.7
20260903131009 27 192 0.0 1.6 0.00 0.00 0.00 91 1014.4
20260903130504 27 353 0.0 4.8 0.00 0.00 0.00 92 1014.5
20260903130003 27 79 1.6 1.6 0.00 0.00 0.00 93 1014.8
20260903125502 27 227 0.0 1.6 0.00 0.00 0.00 94 1014.8
20260903124957 27 105 0.0 1.6 0.00 0.00 0.00 94 1014.8
20260903124452 27 236 0.0 1.6 0.00 0.00 0.00 94 1014.7
20260903123951 26 34 0.0 3.2 0.00 0.00 0.00 95 1014.8
20260903123446 26 137 0.0 1.6 0.00 0.00 0.00 95 1014.8
20260903122944 26 317 0.0 3.2 0.00 0.00 0.00 96 1014.9
20260903122444 26 198 0.0 0.0 0.00 0.00 0.00 97 1014.6
20260903121943 26 356 0.0 1.6 0.00 0.00 0.00 97 1014.8
20260903121438 26 134 0.0 1.6 0.00 0.00 0.00 97 1014.7
20260903120935 26 57 1.6 1.6 0.00 0.00 0.00 97 1014.6
20260903120433 26 22 1.6 3.2 0.00 0.00 0.00 97 1014.7
20260903115932 26 58 0.0 0.0 0.00 0.00 0.00 98 1014.6
20260903115432 26 20 0.0 0.0 0.00 0.00 0.00 98 1014.5
20260903114927 25 194 0.0 1.6 0.00 0.00 0.00 98 1014.5
20260903114422 25 352 0.0 1.6 0.00 0.00 0.00 98 1014.2
20260903113918 25 186 0.0 1.6 0.00 0.00 0.00 98 1014.4
20260903113413 25 130 0.0 1.6 0.00 0.00 0.00 98 1014.2
20260903112909 25 94 0.0 0.0 0.00 0.00 0.00 98 1014.0
20260903112405 25 57 0.0 0.0 0.00 0.00 0.00 98 1013.9
20260903111903 25 31 0.0 0.0 0.00 0.00 0.00 98 1013.9
20260903111403 25 205 0.0 1.6 0.00 0.00 0.00 98 1013.7
20260903110859 25 174 1.6 3.2 0.00 0.00 0.00 98 1013.5
20260903110355 25 226 0.0 0.0 0.00 0.00 0.00 98 1013.7
20260903105850 25 134 0.0 0.0 0.00 0.00 0.00 98 1013.6
20260903105345 25 198 0.0 0.0 0.00 0.00 0.00 98 1013.8
20260903104844 25 127 0.0 1.6 0.00 0.00 0.00 98 1013.6
20260903104339 25 13 0.0 0.0 0.00 0.00 0.00 98 1013.4
20260903103836 25 18 0.0 1.6 0.00 0.00 0.00 98 1013.4
20260903103332 25 354 1.6 1.6 0.00 0.00 0.00 98 1013.3
20260903102827 25 174 0.0 1.6 0.00 0.00 0.00 98 1013.2
20260903102321 25 55 0.0 1.6 0.00 0.00 0.00 98 1013.3
20260903101821 25 70 0.0 3.2 0.00 0.00 0.00 98 1013.4
20260903101316 25 65 0.0 0.0 0.00 0.00 0.00 99 1013.1
20260903100811 25 341 0.0 1.6 0.00 0.00 0.00 99 1013.3
20260903100306 25 19 0.0 0.0 0.00 0.00 0.00 99 1013.1